CDT,Max TemperatureF,Mean TemperatureF,Min TemperatureF,Max Dew PointF,MeanDew PointF,Min DewpointF,Max Humidity, Mean Humidity, Min Humidity, Max Sea Level PressureIn, Mean Sea Level PressureIn, Min Sea Level PressureIn, Max VisibilityMiles, Mean VisibilityMiles, Min VisibilityMiles, Max Wind SpeedMPH, Mean Wind SpeedMPH, Max Gust SpeedMPH,PrecipitationIn, CloudCover, Events, WindDirDegrees
2012-9-1,99,88,77,74,70,65,85,59,33,30.07,29.98,29.92,10,10,6,20,12,26,0.00,1,,185
2012-9-2,100,88,76,73,69,64,88,60,31,30.03,29.96,29.88,10,10,10,18,12,25,0.00,0,,187
2012-9-3,101,89,77,72,66,56,82,53,23,29.99,29.92,29.83,10,10,9,16,10,22,0.00,0,,181
2012-9-4,103,90,77,73,67,57,85,55,24,29.94,29.88,29.79,10,10,8,18,11,24,0.00,0,,179
2012-9-5,102,89,75,72,65,54,87,54,21,29.89,29.84,29.76,10,10,9,18,11,22,0.00,0,,175
2012-9-6,102,88,73,70,65,59,79,53,26,29.93,29.86,29.80,10,10,10,15,8,20,0.00,0,,174
2012-9-7,103,90,77,70,64,58,74,49,23,29.91,29.83,29.74,10,10,10,13,9,17,0.00,0,,174
2012-9-8,90,78,65,62,53,41,70,45,19,30.10,30.00,29.78,10,10,10,29,15,36,0.00,1,,360
2012-9-9,92,71,50,52,44,37,83,49,15,30.16,30.08,30.03,10,10,10,15,5,22,0.00,0,,349
2012-9-10,93,74,54,53,47,44,77,48,19,30.12,30.05,29.98,10,10,10,17,5,22,0.00,0,,143
2012-9-11,92,77,62,62,54,49,84,54,23,30.10,30.03,29.95,10,10,10,18,9,23,0.00,0,,159
2012-9-12,95,82,69,70,64,57,79,54,28,30.07,29.99,29.90,10,10,8,17,8,22,0.00,2,,152
2012-9-13,88,78,68,73,70,66,93,77,61,30.16,30.08,29.99,10,9,1,24,9,31,0.56,5,Rain-Thunderstorm,193
2012-9-14,71,68,64,65,63,61,93,86,78,30.23,30.18,30.14,10,8,1,14,9,23,0.13,8,Rain,336
2012-9-15,81,73,64,63,62,61,87,71,54,30.22,30.16,30.08,10,10,9,12,6,14,0.00,7,,334
2012-9-16,70,68,65,66,64,62,100,89,78,30.10,30.05,29.96,10,6,2,9,2,13,0.62,8,Rain,359
2012-9-17,82,74,66,66,65,63,100,79,58,29.99,29.90,29.79,10,7,1,13,4,29,0.03,6,Rain,164
2012-9-18,85,74,62,65,62,52,93,69,45,30.08,30.00,29.89,10,10,5,17,7,28,0.00,1,,343
2012-9-19,85,69,53,58,52,46,89,58,27,30.14,30.08,30.02,10,10,10,12,5,16,0.00,0,,169
2012-9-20,90,74,58,64,58,52,86,62,37,30.07,30.01,29.94,10,10,10,15,9,18,0.00,0,,175
2012-9-21,91,76,60,59,56,50,84,55,25,30.03,29.96,29.91,10,10,10,12,7,15,0.00,0,,175
2012-9-22,91,76,60,63,59,55,90,61,32,30.09,30.04,29.97,10,10,10,9,5,15,0.00,0,,196
2012-9-23,93,79,64,66,62,58,93,63,32,30.17,30.10,30.06,10,10,10,13,6,15,0.00,0,,191
2012-9-24,93,82,70,69,64,59,97,65,33,30.13,30.05,29.96,10,10,10,18,11,22,0.00,0,,183
2012-9-25,93,83,72,70,66,60,87,60,33,30.03,29.96,29.87,10,9,5,25,16,32,0.00,2,,180
2012-9-26,92,82,71,70,66,59,93,65,36,30.05,29.97,29.91,10,9,4,20,11,24,0.00,2,,171
2012-9-27,89,80,71,70,66,58,90,63,36,30.09,30.03,29.98,10,10,6,17,6,22,0.00,2,,160
2012-9-28,93,81,68,68,64,60,90,63,36,30.07,29.98,29.91,10,10,6,12,5,15,T,2,Rain,113
2012-9-29,75,71,66,72,69,66,100,91,82,29.97,29.83,29.72,10,3,0,28,10,37,3.21,8,Fog-Rain,21
2012-9-30,77,69,60,65,63,55,93,77,60,29.88,29.81,29.76,10,7,2,26,14,37,0.08,7,Rain,359